Location: Guferjoch
(46.7462°N, 8.4506°E)
Time: 02:31:09
(UTC+00:00)

Tsikada Rocket - Visible Passes

Search period start: 23 October 2020 00:00
Search period end: 02 November 2020 00:00
Orbit: 958 x 1009 km, 82.9° (Epoch: 22 October)

Date Brightness Start Highest point End Pass type
(mag) Time Alt. Az. Time Alt. Az. Time Alt. Az.
23 Oct 5.0 02:18:06 42° ENE 02:18:06 42° ENE 02:23:05 10° NNE visible
23 Oct 4.6 04:02:58 32° WNW 04:02:59 32° WNW 04:08:28 10° N visible
24 Oct 6.6 01:01:35 12° ENE 01:01:35 12° ENE 01:03:08 10° NE visible
24 Oct 4.4 02:46:28 54° NNE 02:46:28 54° NNE 02:51:10 10° N visible
24 Oct 5.3 04:31:21 19° WNW 04:31:21 19° WNW 04:35:32 10° NNW visible
25 Oct 6.1 01:29:53 20° NE 01:29:53 20° NE 01:32:36 10° NNE visible
25 Oct 4.6 03:14:46 41° NNW 03:14:46 41° NNW 03:18:59 10° N visible
25 Oct 5.8 04:59:38 10° WNW 04:59:56 10° NW 05:00:35 10° NW visible
26 Oct 5.7 01:58:07 27° NE 01:58:07 27° NE 02:01:05 10° NNE visible
26 Oct 5.1 03:42:59 27° NW 03:42:59 27° NW 03:46:30 10° N visible
27 Oct 5.4 02:26:17 29° NNE 02:26:17 29° NNE 02:29:11 10° N visible
27 Oct 5.5 04:11:09 17° NW 04:11:09 17° NW 04:13:35 10° NNW visible
28 Oct 6.5 01:09:32 14° NE 01:09:32 14° NE 01:10:33 10° NNE visible
28 Oct 5.4 02:54:24 26° N 02:54:24 26° N 02:56:59 10° N visible
29 Oct 6.3 01:37:36 17° NNE 01:37:36 17° NNE 01:39:05 10° NNE visible
29 Oct 5.6 03:22:28 20° NNW 03:22:28 20° NNW 03:24:32 10° N visible
30 Oct 6.1 02:05:39 19° NNE 02:05:39 19° NNE 02:07:11 10° N visible
30 Oct 5.9 03:50:30 14° NNW 03:50:30 14° NNW 03:51:38 10° NNW visible
31 Oct 6.0 02:33:39 17° N 02:33:39 17° N 02:35:01 10° N visible
01 Nov 6.7 01:16:47 11° NNE 01:16:47 11° NNE 01:17:04 10° NNE visible
01 Nov 6.1 03:01:38 14° NNW 03:01:38 14° NNW 03:02:34 10° N visible
